Regional Weather Roundup
Issued by NWS Portland, ME

Current Version | Previous Version | Text Only | Print | Product List | Glossary Off
Versions: 1 2 3 4 5 6 7 8 9 10 11 12 13 14 15 16 17 18 19 20 21 22 23 24 25 26 27 28 29 30 31 32 33 34 35 36 37 38 39 40 41 42 43 44 45 46 47 48 49 50
000 ASUS41 KGYX 220305 RWRGYX WEATHER ROUNDUP FOR MAINE AND NEW HAMPSHIRE NATIONAL WEATHER SERVICE GRAY ME 1100 PM EDT SAT OCT 21 2017 MEZ002-005-006-010-012-015-018-020-021-024-026-027-029-220400- MAINE CITY SKY/WX TMP DP RH WIND PRES REMARKS PORTLAND MOCLDY 52 49 89 CALM 30.31R SANFORD PTCLDY 48 46 93 CALM 30.31R BAR HARBOR CLOUDY 48 44 86 CALM 30.33R WISCASSET CLOUDY 50 47 89 CALM 30.32S ROCKLAND CLOUDY 46 44 93 CALM 30.31S FRYEBURG NOT AVBL LEWISTONAUBURN PTCLDY 48 45 89 CALM 30.31R AUGUSTA MOCLDY 53 46 77 CALM 30.31S WATERVILLE CLOUDY 51 45 79 CALM 30.29R BANGOR CLOUDY 50 42 74 CALM 30.32R GREENVILLE N/A 52 42 69 E5 30.30R MILLINOCKET CLOUDY 47 43 86 CALM 30.35R HOULTON PTCLDY 34 32 92 CALM 30.34S PRESQUE ISLE CLOUDY 32 29 88 CALM 30.37R FRENCHVILLE CLOUDY 37 24 59 N6 30.35R CARIBOU CLOUDY 38 27 64 N6 30.36R $$ NHZ002-005-008-009-011-012-014-220400- NEW HAMPSHIRE CITY SKY/WX TMP DP RH WIND PRES REMARKS PORTSMOUTH MOCLDY 56 49 77 CALM 30.29S ROCHESTER NOT AVBL MANCHESTER CLOUDY 57 49 74 CALM 30.31R CONCORD PTCLDY 51 47 86 CALM 30.33R LACONIA CLOUDY 54 50 86 CALM 30.33R PLYMOUTH FAIR 47 45 94 CALM 30.33R BERLIN CLEAR 43 41 93 CALM 30.33R WHITEFIELD CLEAR 43 41 93 CALM 30.33R JAFFREY CLOUDY 50 48 93 CALM 30.36R KEENE CLOUDY 46 45 96 CALM 30.35S LEBANON PTCLDY 46 43 89 CALM 30.33R MT WASHINGTON MOCLDY 43 41 93 NW29 N/A $$ VTZ005-007-008-220400- VERMONT CITY SKY/WX TMP DP RH WIND PRES REMARKS ST JOHNSBURY N/A 49 48 97 MISG 30.31S BURLINGTON CLOUDY 53 48 83 CALM 30.30S $$ MAZ007-012-024-CTZ003-RIZ002-NYZ038-NYZ072-220400- SOUTHERN NEW ENGLAND AND NY CITY SKY/WX TMP DP RH WIND PRES REMARKS BOSTON CLOUDY 62 48 60 SW6 30.32R WORCESTER CLOUDY 58 39 49 W8 30.35R NANTUCKET CLOUDY 60 58 92 SW9 30.36S PROVIDENCE CLOUDY 56 50 80 W3 30.34S HARTFORD PTCLDY 51 46 83 CALM 30.34R ALBANY CLOUDY 49 45 86 CALM 30.33R NEW YORK CITY PTCLDY 66 46 48 SW6 30.35S $$ ANZ081-ANZ082-ANZ150-NHZ014-MEZ023>029-220400- COASTAL MARINE OBSERVATIONS STATION/POSITION TIME TEMP WIND PRES WAVE AIR SEA DIR/SP/G HT/PER (UTC) (F) (DEG/KT/KT) (MB) (FT/S) MOUNT DESERT ROC 0200 56 170/ 6/ 6 1026.7R MATINICUS ROCK 0200 56 160/ 9/ 9 1025.8R ISLE OF SHOALS 0200 65 250/ 8/ 8 1025.6R JEFFREYS LEDGE 0236 58 N/A 2/ 4 GEORGES BANK BUO 0150 58 58 1028.2 3/ 6 $$ .............KEY.............. WCI - WIND CHILL TC - TEMPERATURE IN CELSIUS VSB - VISIBILITY IN MILES HX - HEAT INDEX FAIR- INDICATES FEW OR NO CLOUDS BELOW 12,000 FT, WITH NO SIGNIFICANT WEATHER AND/OR OBSTRUCTIONS TO VISIBILITY.

USA.gov is the U.S. government's official web portal to all federal, state and local government web resources and services.